This is the latest recevied weather packets stored in our database for station/object N5ATR. If no packets are shown the sender has not sent any weather packets the latest 10 day(s).
| Time | Temp. | Humidity | Pressure | Rain* | Wind** | Luminosity | Snow |
|---|---|---|---|---|---|---|---|
| 1788575103 | 18.89° C | 67% | 1022.4 hPa | 0 mm | - | 0 W/m² | - |
| 1788574799 | 18.89° C | 67% | 1022.3 hPa | 0 mm | - | 0 W/m² | - |
| 1788574498 | 18.89° C | 67% | 1022.2 hPa | 0 mm | - | 0 W/m² | - |
| 1788574194 | 18.89° C | 67% | 1022 hPa | 0 mm | - | 0 W/m² | - |
| 1788573894 | 18.89° C | 66% | 1022.2 hPa | 0 mm | - | 0 W/m² | - |
| 1788573593 | 18.89° C | 66% | 1022 hPa | 0 mm | - | 0 W/m² | - |
| 1788573292 | 19.44° C | 65% | 1022.2 hPa | 0 mm | - | 0 W/m² | - |
| 1788572991 | 19.44° C | 65% | 1022 hPa | 0 mm | - | 0 W/m² | - |
| 1788572687 | 19.44° C | 65% | 1022.2 hPa | 0 mm | - | 0 W/m² | - |
| 1788572382 | 19.44° C | 65% | 1022 hPa | 0 mm | - | 1 W/m² | - |
| 1788572079 | 19.44° C | 64% | 1022.5 hPa | 0 mm | - | 1 W/m² | - |
| 1788571779 | 19.44° C | 64% | 1022.4 hPa | 0 mm | - | 1 W/m² | - |
| 1788571474 | 20° C | 64% | 1022.5 hPa | 0 mm | - | 2 W/m² | - |
| 1788571171 | 20° C | 64% | 1022.8 hPa | 0 mm | - | 2 W/m² | - |
| 1788570867 | 20° C | 64% | 1022.4 hPa | 0 mm | - | 3 W/m² | - |
| 1788570562 | 20° C | 64% | 1022.8 hPa | 0 mm | - | 4 W/m² | - |
| 1788570257 | 20° C | 64% | 1022.6 hPa | 0 mm | - | 6 W/m² | - |
| 1788569953 | 20° C | 63% | 1022.5 hPa | 0 mm | - | 9 W/m² | - |
| 1788569649 | 20° C | 63% | 1022.6 hPa | 0 mm | - | 13 W/m² | - |
| 1788569344 | 20.56° C | 62% | 1022.4 hPa | 0 mm | - | 18 W/m² | - |
| 1788569043 | 20.56° C | 62% | 1022.6 hPa | 0 mm | - | 24 W/m² | - |
| 1788568739 | 20.56° C | 62% | 1022.8 hPa | 0 mm | - | 31 W/m² | - |
| 1788568435 | 20.56° C | 61% | 1022.4 hPa | 0 mm | - | 39 W/m² | - |
| 1788568130 | 20.56° C | 61% | 1022.3 hPa | 0 mm | - | 46 W/m² | - |
| 1788567830 | 21.11° C | 61% | 1022.2 hPa | 0 mm | - | 50 W/m² | - |
* Rain latest hour (hover to see other rain measurements)
** Current wind speed in m/s (hover to see current wind gust speed)